Vertical_Velocity
-1 -2 -3 -3 -0 -1 -0 -2 -4 -5 -7 -3 3 4 2 -3 -6 -2 -4 2 -1 1
-3 -2 -1 -2 1 -2 -4 0 0 -1 3 0 -1 -3 -5 -3 -0 -2 -3 -2 -2 -1
-0 -1 1 -2 -1 -3 -2 -3 2 0 -1 -1 -1 -1 -0 -7 -1 -1 -5 -2 1 -2
-2 -2 -2 -3 -2 0 2 -1 -3 -3 -4 -7 -5 -4 1 -1 -1 -3 0 -3 -1 -1
-3 -3 -0 -1 -4 -5 -4 -6 -8 -4 -4 -3 -5 -2 3 -0 4 6 1 1 0 -3
-2 -6 -4 -3 -3 -3 -4 -3 -2 -0 0 -2 -1 -1 0 1 -0 -1 -0 1 -2 -1
-3 -1 -3 -1 -1 -2 -3 -3 -2 -3 -4 -3 -2 -1 -3 -3 -3 -2 0 0 -1 -0
1 -2 -3 -3 -0 -1 -1 1 -3 -4 -4 -2 -1 -2 -2 -1 -2 -2 -0 -3 -2 -1
1 1 -0 -1 0 1 -2 -3 -4 -6 -3 -1 -2 -4 -2 -2 -2 -2 -2 0 2 1
-1 -0 -2 -1 -4 -4 1 -6 -2 -3 -1 -3 -1 -0 -3 -3 -1 -2 -2 -1 -1 3
-0 -1 -3 -2 -1 -3 -4 -2 -1 -1 1 1 1 -1 -1 0 -2 -3 -4 -2 -3 -1
-5 -3 -3 -1 -1 -1 -2 -1 -1 1 1 -0 -0 0 0 -0 1 0 -1 -1 -2 -0
-4 -2 -2 -1 -2 -3 -2 -0 -0 1 0 0 -0 -1 -0 -2 0 -1 2 -2 -2 -2
0 -0 -1 1 -1 -2 -0 1 2 2 1 1 1 -0 -2 -3 -2 2 1 1 1 -2
Height
5710 5704 5697 5689 5681 5673 5663 5652 5641 5629 5616 5603 5590 5576 5562 5547 5532 5521 5507 5497 5489 5484
5699 5692 5684 5676 5668 5657 5647 5635 5622 5608 5595 5580 5565 5549 5533 5520 5505 5492 5485 5477 5472 5468
5685 5676 5668 5660 5651 5640 5627 5613 5600 5586 5570 5554 5540 5525 5509 5493 5481 5473 5467 5462 5458 5452
5672 5664 5654 5644 5631 5618 5606 5593 5579 5564 5548 5533 5519 5502 5486 5473 5463 5456 5452 5449 5445 5439
5658 5649 5637 5625 5613 5601 5589 5575 5560 5545 5529 5513 5496 5480 5468 5457 5451 5446 5442 5439 5433 5428
5644 5633 5622 5611 5598 5584 5571 5557 5542 5527 5510 5493 5477 5465 5454 5445 5439 5435 5431 5427 5421 5416
5630 5619 5607 5594 5581 5567 5552 5539 5524 5508 5492 5475 5463 5452 5444 5437 5432 5427 5422 5417 5410 5404
5615 5603 5591 5578 5564 5549 5534 5519 5503 5489 5474 5463 5454 5446 5440 5433 5427 5421 5414 5407 5400 5393
5600 5587 5574 5560 5546 5531 5516 5500 5486 5473 5462 5454 5447 5440 5434 5426 5419 5412 5405 5398 5391 5383
5584 5570 5556 5542 5528 5514 5497 5482 5470 5459 5452 5446 5440 5434 5426 5418 5412 5404 5396 5388 5381 5375
5567 5552 5538 5524 5509 5494 5481 5468 5457 5450 5444 5439 5433 5426 5419 5412 5404 5396 5388 5379 5372 5366
5548 5534 5520 5507 5491 5477 5466 5455 5447 5442 5437 5432 5426 5420 5413 5406 5398 5390 5381 5372 5365 5359
5530 5517 5503 5489 5475 5463 5453 5444 5438 5434 5429 5424 5418 5412 5406 5398 5391 5383 5374 5365 5358 5352
5513 5499 5485 5473 5461 5450 5442 5435 5430 5426 5421 5416 5411 5406 5398 5391 5383 5376 5367 5360 5354 5347